Time,TemperatureF,DewpointF,PressureIn,WindDirection,WindDirectionDegrees,WindSpeedMPH,WindSpeedGustMPH,Humidity,HourlyPrecipIn,Conditions,Clouds,dailyrainin,SolarRadiationWatts/m^2,SoftwareType,DateUTC
2013-07-14 00:22:00,61.0,29.0,-100.00,SW,223,8.0,15.0,30,0.00,,,0.00,0.000000,,2013-07-14 07:22:00,
2013-07-14 00:32:00,61.0,29.0,-100.00,SW,223,8.0,15.0,30,0.00,,,0.00,0.000000,,2013-07-14 07:32:00,
2013-07-14 00:43:00,61.0,29.0,-100.00,SW,223,8.0,15.0,30,0.00,,,0.00,0.000000,,2013-07-14 07:43:00,
2013-07-14 00:51:00,60.0,27.0,-100.00,SW,227,8.0,14.0,28,0.00,,,0.00,0.000000,,2013-07-14 07:51:00,
2013-07-14 01:11:00,60.0,27.0,-100.00,SW,227,8.0,14.0,28,0.00,,,0.00,0.000000,,2013-07-14 08:11:00,
2013-07-14 01:22:00,60.0,27.0,-100.00,SW,227,8.0,14.0,28,0.00,,,0.00,0.000000,,2013-07-14 08:22:00,
2013-07-14 01:32:00,60.0,27.0,-100.00,SW,227,8.0,14.0,28,0.00,,,0.00,0.000000,,2013-07-14 08:32:00,
2013-07-14 01:42:00,60.0,27.0,-100.00,SW,227,8.0,14.0,28,0.00,,,0.00,0.000000,,2013-07-14 08:42:00,
2013-07-14 01:51:00,61.0,28.0,-100.00,North,356,9.0,15.0,28,0.00,,,0.00,0.000000,,2013-07-14 08:51:00,
2013-07-14 02:11:00,61.0,28.0,-100.00,North,356,9.0,15.0,28,0.00,,,0.00,0.000000,,2013-07-14 09:11:00,
2013-07-14 02:22:00,61.0,28.0,-100.00,North,356,9.0,15.0,28,0.00,,,0.00,0.000000,,2013-07-14 09:22:00,
2013-07-14 02:32:00,61.0,28.0,-100.00,North,356,9.0,15.0,28,0.00,,,0.00,0.000000,,2013-07-14 09:32:00,
2013-07-14 02:42:00,61.0,28.0,-100.00,North,356,9.0,15.0,28,0.00,,,0.00,0.000000,,2013-07-14 09:42:00,
2013-07-14 02:51:00,59.0,27.0,-100.00,NW,308,8.0,13.0,29,0.00,,,0.00,0.000000,,2013-07-14 09:51:00,
2013-07-14 03:11:00,59.0,27.0,-100.00,NW,308,8.0,13.0,29,0.00,,,0.00,0.000000,,2013-07-14 10:11:00,
2013-07-14 03:21:00,59.0,27.0,-100.00,NW,308,8.0,13.0,29,0.00,,,0.00,0.000000,,2013-07-14 10:21:00,
2013-07-14 03:32:00,59.0,27.0,-100.00,NW,308,8.0,13.0,29,0.00,,,0.00,0.000000,,2013-07-14 10:32:00,
2013-07-14 03:42:00,59.0,27.0,-100.00,NW,308,8.0,13.0,29,0.00,,,0.00,0.000000,,2013-07-14 10:42:00,
2013-07-14 03:51:00,59.0,27.0,-100.00,SW,225,7.0,14.0,29,0.00,,,0.00,0.000000,,2013-07-14 10:51:00,
2013-07-14 04:11:00,59.0,27.0,-100.00,SW,225,7.0,14.0,29,0.00,,,0.00,0.000000,,2013-07-14 11:11:00,
2013-07-14 04:21:00,59.0,27.0,-100.00,SW,225,7.0,14.0,29,0.00,,,0.00,0.000000,,2013-07-14 11:21:00,
2013-07-14 04:32:00,59.0,27.0,-100.00,SW,225,7.0,14.0,29,0.00,,,0.00,0.000000,,2013-07-14 11:32:00,
2013-07-14 04:43:00,59.0,27.0,-100.00,SW,225,7.0,14.0,29,0.00,,,0.00,0.000000,,2013-07-14 11:43:00,
2013-07-14 04:51:00,59.0,28.0,-100.00,NNW,339,8.0,14.0,30,0.00,,,0.00,0.000000,,2013-07-14 11:51:00,
2013-07-14 05:11:00,59.0,28.0,-100.00,NNW,339,8.0,14.0,30,0.00,,,0.00,0.000000,,2013-07-14 12:11:00,
2013-07-14 05:22:00,59.0,28.0,-100.00,NNW,339,8.0,14.0,30,0.00,,,0.00,0.000000,,2013-07-14 12:22:00,
2013-07-14 05:32:00,59.0,28.0,-100.00,NNW,339,8.0,14.0,30,0.00,,,0.00,0.000000,,2013-07-14 12:32:00,
2013-07-14 05:43:00,59.0,28.0,-100.00,NNW,339,8.0,14.0,30,0.00,,,0.00,0.000000,,2013-07-14 12:43:00,
2013-07-14 05:51:00,61.0,27.0,-100.00,NNW,347,7.0,14.0,27,0.00,,,0.00,0.000000,,2013-07-14 12:51:00,
2013-07-14 06:22:00,61.0,27.0,-100.00,NNW,347,7.0,14.0,27,0.00,,,0.00,0.000000,,2013-07-14 13:22:00,
2013-07-14 06:32:00,61.0,27.0,-100.00,NNW,347,7.0,14.0,27,0.00,,,0.00,0.000000,,2013-07-14 13:32:00,
2013-07-14 06:42:00,61.0,27.0,-100.00,NNW,347,7.0,14.0,27,0.00,,,0.00,0.000000,,2013-07-14 13:42:00,
2013-07-14 06:51:00,62.0,29.0,-100.00,SSE,149,8.0,12.0,28,0.00,,,0.00,71.000000,,2013-07-14 13:51:00,
2013-07-14 07:11:00,62.0,29.0,-100.00,SSE,149,8.0,12.0,28,0.00,,,0.00,71.000000,,2013-07-14 14:11:00,
2013-07-14 07:23:00,62.0,29.0,-100.00,SSE,149,8.0,12.0,28,0.00,,,0.00,71.000000,,2013-07-14 14:23:00,
2013-07-14 07:33:00,62.0,29.0,-100.00,SSE,149,8.0,12.0,28,0.00,,,0.00,71.000000,,2013-07-14 14:33:00,
2013-07-14 07:43:00,62.0,29.0,-100.00,SSE,149,8.0,12.0,28,0.00,,,0.00,71.000000,,2013-07-14 14:43:00,
2013-07-14 07:51:00,62.0,28.0,-100.00,NW,314,8.0,14.0,27,0.00,,,0.00,337.000000,,2013-07-14 14:51:00,
2013-07-14 08:12:00,62.0,28.0,-100.00,NW,314,8.0,14.0,27,0.00,,,0.00,337.000000,,2013-07-14 15:12:00,
2013-07-14 08:22:00,62.0,28.0,-100.00,NW,314,8.0,14.0,27,0.00,,,0.00,337.000000,,2013-07-14 15:22:00,
2013-07-14 08:32:00,62.0,28.0,-100.00,NW,314,8.0,14.0,27,0.00,,,0.00,337.000000,,2013-07-14 15:32:00,
2013-07-14 08:42:00,62.0,28.0,-100.00,NW,314,8.0,14.0,27,0.00,,,0.00,337.000000,,2013-07-14 15:42:00,
2013-07-14 08:51:00,66.0,29.0,-100.00,NNW,339,7.0,13.0,25,0.00,,,0.00,625.000000,,2013-07-14 15:51:00,
2013-07-14 09:11:00,66.0,29.0,-100.00,NNW,339,7.0,13.0,25,0.00,,,0.00,625.000000,,2013-07-14 16:11:00,
2013-07-14 09:22:00,66.0,29.0,-100.00,NNW,339,7.0,13.0,25,0.00,,,0.00,625.000000,,2013-07-14 16:22:00,
2013-07-14 09:32:00,66.0,29.0,-100.00,NNW,339,7.0,13.0,25,0.00,,,0.00,625.000000,,2013-07-14 16:32:00,
2013-07-14 09:43:00,66.0,29.0,-100.00,NNW,339,7.0,13.0,25,0.00,,,0.00,625.000000,,2013-07-14 16:43:00,
2013-07-14 09:51:00,69.0,30.0,-100.00,East,84,6.0,13.0,23,0.00,,,0.00,904.000000,,2013-07-14 16:51:00,
2013-07-14 10:11:00,69.0,30.0,-100.00,East,84,6.0,13.0,23,0.00,,,0.00,904.000000,,2013-07-14 17:11:00,
2013-07-14 10:22:00,69.0,30.0,-100.00,East,84,6.0,13.0,23,0.00,,,0.00,904.000000,,2013-07-14 17:22:00,
2013-07-14 10:32:00,69.0,30.0,-100.00,East,84,6.0,13.0,23,0.00,,,0.00,904.000000,,2013-07-14 17:32:00,
2013-07-14 10:43:00,69.0,30.0,-100.00,East,84,6.0,13.0,23,0.00,,,0.00,904.000000,,2013-07-14 17:43:00,
2013-07-14 10:51:00,72.0,31.0,-100.00,North,10,2.0,11.0,22,0.00,,,0.00,1141.000000,,2013-07-14 17:51:00,
2013-07-14 11:11:00,72.0,31.0,-100.00,North,10,2.0,11.0,22,0.00,,,0.00,1141.000000,,2013-07-14 18:11:00,
2013-07-14 11:21:00,72.0,31.0,-100.00,North,10,2.0,11.0,22,0.00,,,0.00,1141.000000,,2013-07-14 18:21:00,
2013-07-14 11:32:00,72.0,31.0,-100.00,North,10,2.0,11.0,22,0.00,,,0.00,1141.000000,,2013-07-14 18:32:00,
2013-07-14 11:42:00,72.0,31.0,-100.00,North,10,2.0,11.0,22,0.00,,,0.00,1141.000000,,2013-07-14 18:42:00,
2013-07-14 11:51:00,75.0,34.0,-100.00,NE,38,2.0,9.0,22,0.00,,,0.00,1264.000000,,2013-07-14 18:51:00,
2013-07-14 12:11:00,75.0,34.0,-100.00,NE,38,2.0,9.0,22,0.00,,,0.00,1264.000000,,2013-07-14 19:11:00,
2013-07-14 12:22:00,75.0,34.0,-100.00,NE,38,2.0,9.0,22,0.00,,,0.00,1264.000000,,2013-07-14 19:22:00,
2013-07-14 12:32:00,75.0,34.0,-100.00,NE,38,2.0,9.0,22,0.00,,,0.00,1264.000000,,2013-07-14 19:32:00,
2013-07-14 12:43:00,75.0,34.0,-100.00,NE,38,2.0,9.0,22,0.00,,,0.00,1264.000000,,2013-07-14 19:43:00,
2013-07-14 12:51:00,76.0,34.0,-100.00,NNW,347,1.0,7.0,22,0.00,,,0.00,1306.000000,,2013-07-14 19:51:00,
2013-07-14 13:11:00,76.0,34.0,-100.00,NNW,347,1.0,7.0,22,0.00,,,0.00,1306.000000,,2013-07-14 20:11:00,
2013-07-14 13:22:00,76.0,34.0,-100.00,NNW,347,1.0,7.0,22,0.00,,,0.00,1306.000000,,2013-07-14 20:22:00,
2013-07-14 13:32:00,76.0,34.0,-100.00,NNW,347,1.0,7.0,22,0.00,,,0.00,1306.000000,,2013-07-14 20:32:00,
2013-07-14 13:43:00,76.0,34.0,-100.00,NNW,347,1.0,7.0,22,0.00,,,0.00,1306.000000,,2013-07-14 20:43:00,
2013-07-14 13:51:00,77.0,35.0,-100.00,SE,144,2.0,7.0,22,0.00,,,0.00,1414.000000,,2013-07-14 20:51:00,
2013-07-14 14:22:00,77.0,35.0,-100.00,SE,144,2.0,7.0,22,0.00,,,0.00,1414.000000,,2013-07-14 21:22:00,
2013-07-14 14:32:00,77.0,35.0,-100.00,SE,144,2.0,7.0,22,0.00,,,0.00,1414.000000,,2013-07-14 21:32:00,
2013-07-14 14:42:00,77.0,35.0,-100.00,SE,144,2.0,7.0,22,0.00,,,0.00,1414.000000,,2013-07-14 21:42:00,
2013-07-14 14:51:00,73.0,32.0,-100.00,NNW,345,6.0,12.0,22,0.00,,,0.00,1376.000000,,2013-07-14 21:51:00,
2013-07-14 15:22:00,73.0,32.0,-100.00,NNW,345,6.0,12.0,22,0.00,,,0.00,1376.000000,,2013-07-14 22:22:00,
2013-07-14 15:32:00,73.0,32.0,-100.00,NNW,345,6.0,12.0,22,0.00,,,0.00,1376.000000,,2013-07-14 22:32:00,
2013-07-14 15:42:00,73.0,32.0,-100.00,NNW,345,6.0,12.0,22,0.00,,,0.00,1376.000000,,2013-07-14 22:42:00,
2013-07-14 15:51:00,73.0,30.0,-100.00,North,4,5.0,14.0,20,0.00,,,0.00,1280.000000,,2013-07-14 22:51:00,
2013-07-14 16:11:00,73.0,30.0,-100.00,North,4,5.0,14.0,20,0.00,,,0.00,1280.000000,,2013-07-14 23:11:00,
2013-07-14 16:22:00,73.0,30.0,-100.00,North,4,5.0,14.0,20,0.00,,,0.00,1280.000000,,2013-07-14 23:22:00,
2013-07-14 16:32:00,73.0,30.0,-100.00,North,4,5.0,14.0,20,0.00,,,0.00,1280.000000,,2013-07-14 23:32:00,
2013-07-14 16:42:00,73.0,30.0,-100.00,North,4,5.0,14.0,20,0.00,,,0.00,1280.000000,,2013-07-14 23:42:00,
2013-07-14 16:51:00,69.0,27.0,-100.00,North,4,9.0,18.0,21,0.00,,,0.00,1011.000000,,2013-07-14 23:51:00,
2013-07-14 17:11:00,69.0,27.0,-100.00,North,4,9.0,18.0,21,0.00,,,0.00,1011.000000,,2013-07-15 00:11:00,
2013-07-14 17:22:00,69.0,27.0,-100.00,North,4,9.0,18.0,21,0.00,,,0.00,1011.000000,,2013-07-15 00:22:00,
2013-07-14 17:32:00,69.0,27.0,-100.00,North,4,9.0,18.0,21,0.00,,,0.00,1011.000000,,2013-07-15 00:32:00,
2013-07-14 17:43:00,69.0,27.0,-100.00,North,4,9.0,18.0,21,0.00,,,0.00,1011.000000,,2013-07-15 00:43:00,
2013-07-14 17:51:00,68.0,28.0,-100.00,NW,304,7.0,18.0,22,0.00,,,0.00,765.000000,,2013-07-15 00:51:00,
2013-07-14 18:11:00,68.0,28.0,-100.00,NW,304,7.0,18.0,22,0.00,,,0.00,765.000000,,2013-07-15 01:11:00,
2013-07-14 18:22:00,68.0,28.0,-100.00,NW,304,7.0,18.0,22,0.00,,,0.00,765.000000,,2013-07-15 01:22:00,
2013-07-14 18:32:00,68.0,28.0,-100.00,NW,304,7.0,18.0,22,0.00,,,0.00,765.000000,,2013-07-15 01:32:00,
2013-07-14 18:43:00,68.0,28.0,-100.00,NW,304,7.0,18.0,22,0.00,,,0.00,765.000000,,2013-07-15 01:43:00,
2013-07-14 18:51:00,64.0,26.0,-100.00,SSE,164,7.0,16.0,24,0.00,,,0.00,336.000000,,2013-07-15 01:51:00,
2013-07-14 19:11:00,64.0,26.0,-100.00,SSE,164,7.0,16.0,24,0.00,,,0.00,336.000000,,2013-07-15 02:11:00,
2013-07-14 19:22:00,64.0,26.0,-100.00,SSE,164,7.0,16.0,24,0.00,,,0.00,336.000000,,2013-07-15 02:22:00,
2013-07-14 19:32:00,64.0,26.0,-100.00,SSE,164,7.0,16.0,24,0.00,,,0.00,336.000000,,2013-07-15 02:32:00,
2013-07-14 19:42:00,64.0,26.0,-100.00,SSE,164,7.0,16.0,24,0.00,,,0.00,336.000000,,2013-07-15 02:42:00,
2013-07-14 19:51:00,62.0,27.0,-100.00,ENE,78,7.0,15.0,26,0.00,,,0.00,24.000000,,2013-07-15 02:51:00,
2013-07-14 20:11:00,62.0,27.0,-100.00,ENE,78,7.0,15.0,26,0.00,,,0.00,24.000000,,2013-07-15 03:11:00,
2013-07-14 20:21:00,62.0,27.0,-100.00,ENE,78,7.0,15.0,26,0.00,,,0.00,24.000000,,2013-07-15 03:21:00,
2013-07-14 20:32:00,62.0,27.0,-100.00,ENE,78,7.0,15.0,26,0.00,,,0.00,24.000000,,2013-07-15 03:32:00,
2013-07-14 20:42:00,62.0,27.0,-100.00,ENE,78,7.0,15.0,26,0.00,,,0.00,24.000000,,2013-07-15 03:42:00,
2013-07-14 20:51:00,60.0,27.0,-100.00,NNE,20,8.0,15.0,28,0.00,,,0.00,3.000000,,2013-07-15 03:51:00,
2013-07-14 21:11:00,60.0,27.0,-100.00,NNE,20,8.0,15.0,28,0.00,,,0.00,3.000000,,2013-07-15 04:11:00,
2013-07-14 21:22:00,60.0,27.0,-100.00,NNE,20,8.0,15.0,28,0.00,,,0.00,3.000000,,2013-07-15 04:22:00,
2013-07-14 21:32:00,60.0,27.0,-100.00,NNE,20,8.0,15.0,28,0.00,,,0.00,3.000000,,2013-07-15 04:32:00,
2013-07-14 21:42:00,60.0,27.0,-100.00,NNE,20,8.0,15.0,28,0.00,,,0.00,3.000000,,2013-07-15 04:42:00,
2013-07-14 21:51:00,61.0,29.0,-100.00,NE,43,9.0,17.0,29,0.00,,,0.00,0.000000,,2013-07-15 04:51:00,
2013-07-14 22:11:00,61.0,29.0,-100.00,NE,43,9.0,17.0,29,0.00,,,0.00,0.000000,,2013-07-15 05:11:00,
2013-07-14 22:21:00,61.0,29.0,-100.00,NE,43,9.0,17.0,29,0.00,,,0.00,0.000000,,2013-07-15 05:21:00,
2013-07-14 22:32:00,61.0,29.0,-100.00,NE,43,9.0,17.0,29,0.00,,,0.00,0.000000,,2013-07-15 05:32:00,
2013-07-14 22:43:00,61.0,29.0,-100.00,NE,43,9.0,17.0,29,0.00,,,0.00,0.000000,,2013-07-15 05:43:00,
2013-07-14 22:51:00,59.0,28.0,-100.00,NNE,15,6.0,15.0,31,0.00,,,0.00,0.000000,,2013-07-15 05:51:00,
2013-07-14 23:11:00,59.0,28.0,-100.00,NNE,15,6.0,15.0,31,0.00,,,0.00,0.000000,,2013-07-15 06:11:00,
2013-07-14 23:22:00,59.0,28.0,-100.00,NNE,15,6.0,15.0,31,0.00,,,0.00,0.000000,,2013-07-15 06:22:00,
2013-07-14 23:32:00,59.0,28.0,-100.00,NNE,15,6.0,15.0,31,0.00,,,0.00,0.000000,,2013-07-15 06:32:00,
2013-07-14 23:42:00,59.0,28.0,-100.00,NNE,15,6.0,15.0,31,0.00,,,0.00,0.000000,,2013-07-15 06:42:00,
2013-07-14 23:51:00,61.0,29.0,-100.00,North,357,5.0,11.0,29,0.00,,,0.00,0.000000,,2013-07-15 06:51:00,